When you browse on this site, cookies collect data to enhance your experience and personalize the content and advertising you see.
Visit our Privacy Policy to learn more. By continuing to use the site, you agree to this use of cookies and data.
  • In Latvia
  • List of Countries
  • For 7 days
  • Water Temperature
  • Weather Map
  • Weather Widgets
  • user-avatar
    Login

    Hourly Weather Igls

    Today, 27 February, Thursday

    Time Temperature Precipitation Wind Pressure Humidity
    00:00 -3°C° 0.4 mm 1 mps 677 mmHg 94%
    01:00 -4°C° 0 mm 1 mps 676 mmHg 94%
    02:00 -4°C° 0.1 mm 1 mps 677 mmHg 93%
    03:00 -4°C° 0.1 mm 1 mps 677 mmHg 92%
    04:00 -7°C° 0.1 mm 2 mps 677 mmHg 91%
    05:00 -7°C° 0 mm 2 mps 677 mmHg 90%
    06:00 -7°C° 0 mm 2 mps 677 mmHg 89%
    07:00 -7°C° 0 mm 2 mps 678 mmHg 88%
    08:00 -5°C° 0 mm 2 mps 678 mmHg 82%
    09:00 -4°C° 0 mm 2 mps 677 mmHg 75%
    10:00 -2°C° 0 mm 2 mps 677 mmHg 69%
    11:00 -1°C° 0 mm 2 mps 677 mmHg 66%
    12:00 0°C° 0 mm 3 mps 676 mmHg 64%
    13:00 0°C° 0 mm 3 mps 675 mmHg 61%
    14:00 -1°C° 0.2 mm 4 mps 674 mmHg 64%
    15:00 -2°C° 0.2 mm 4 mps 673 mmHg 66%
    16:00 -2°C° 0.2 mm 5 mps 672 mmHg 69%
    17:00 -4°C° 0.3 mm 5 mps 671 mmHg 72%
    18:00 -4°C° 0.3 mm 5 mps 671 mmHg 76%
    19:00 -5°C° 0.3 mm 5 mps 670 mmHg 79%
    20:00 -4°C° 0.3 mm 4 mps 670 mmHg 83%
    21:00 -4°C° 0.3 mm 4 mps 671 mmHg 87%
    22:00 -4°C° 0.3 mm 3 mps 671 mmHg 91%
    23:00 -4°C° 0.7 mm 3 mps 672 mmHg 92%

    Tomorrow, 28 February, Friday

    Time Temperature Precipitation Wind Pressure Humidity
    00:00 -4°C° 0.7 mm 3 mps 674 mmHg 93%
    01:00 -4°C° 0.7 mm 3 mps 675 mmHg 94%
    02:00 -4°C° 1.1 mm 3 mps 676 mmHg 95%
    03:00 -4°C° 1.1 mm 3 mps 677 mmHg 95%
    04:00 -4°C° 1.1 mm 3 mps 677 mmHg 95%
    05:00 -4°C° 0.9 mm 3 mps 678 mmHg 95%
    06:00 -5°C° 0.9 mm 4 mps 680 mmHg 95%
    07:00 -5°C° 0.9 mm 4 mps 681 mmHg 94%
    08:00 -4°C° 0.2 mm 3 mps 681 mmHg 89%
    09:00 -4°C° 0.2 mm 3 mps 682 mmHg 84%
    10:00 -2°C° 0.2 mm 3 mps 683 mmHg 78%
    11:00 -2°C° 0 mm 2 mps 683 mmHg 74%
    12:00 -1°C° 0 mm 2 mps 684 mmHg 70%
    13:00 +2°C° 0 mm 1 mps 684 mmHg 66%
    14:00 +2°C° 0 mm 1 mps 684 mmHg 65%
    15:00 +2°C° 0 mm 1 mps 683 mmHg 64%
    16:00 +2°C° 0 mm 1 mps 683 mmHg 63%
    17:00 +1°C° 0 mm 1 mps 683 mmHg 65%
    18:00 -3°C° 0 mm 2 mps 683 mmHg 66%
    19:00 -5°C° 0 mm 2 mps 682 mmHg 68%
    20:00 -4°C° 0 mm 2 mps 682 mmHg 66%
    21:00 -4°C° 0 mm 2 mps 682 mmHg 65%
    22:00 -5°C° 0 mm 3 mps 682 mmHg 63%
    23:00 -5°C° 0 mm 3 mps 682 mmHg 64%

    Day after tomorrow, 29 February, Saturday

    Time Temperature Precipitation Wind Pressure Humidity
    00:00 -5°C° 0 mm 3 mps 682 mmHg 65%
    01:00 -5°C° 0 mm 3 mps 682 mmHg 66%
    02:00 -5°C° 0 mm 3 mps 681 mmHg 68%
    03:00 -5°C° 0 mm 3 mps 681 mmHg 69%
    04:00 -5°C° 0 mm 3 mps 680 mmHg 70%
    05:00 -5°C° 0 mm 4 mps 680 mmHg 71%
    06:00 -4°C° 0 mm 4 mps 679 mmHg 71%
    07:00 -4°C° 0 mm 4 mps 679 mmHg 72%
    08:00 -3°C° 0 mm 4 mps 678 mmHg 74%
    09:00 -2°C° 0 mm 4 mps 678 mmHg 75%
    10:00 0°C° 0 mm 4 mps 678 mmHg 77%
    11:00 0°C° 0 mm 4 mps 677 mmHg 77%
    12:00 +1°C° 0 mm 5 mps 676 mmHg 76%
    13:00 +2°C° 0 mm 5 mps 676 mmHg 76%
    14:00 +1°C° 0 mm 4 mps 676 mmHg 75%
    15:00 +1°C° 0 mm 4 mps 675 mmHg 75%
    16:00 +1°C° 0 mm 4 mps 675 mmHg 74%
    17:00 0°C° 0 mm 4 mps 675 mmHg 76%
    18:00 -2°C° 0 mm 4 mps 675 mmHg 77%
    19:00 -3°C° 0 mm 4 mps 675 mmHg 79%
    20:00 -3°C° 0 mm 4 mps 675 mmHg 81%
    21:00 -2°C° 0 mm 3 mps 675 mmHg 83%
    22:00 -2°C° 0 mm 3 mps 675 mmHg 85%
    23:00 -2°C° 0 mm 3 mps 675 mmHg 86%

    1 March, Sunday

    Time Temperature Precipitation Wind Pressure Humidity
    00:00 -2°C° 0 mm 2 mps 675 mmHg 87%
    01:00 -2°C° 0 mm 2 mps 675 mmHg 87%
    02:00 -2°C° 0 mm 2 mps 675 mmHg 89%
    03:00 0°C° 0 mm 1 mps 675 mmHg 90%
    04:00 0°C° 0 mm 1 mps 675 mmHg 92%
    05:00 0°C° 0 mm 1 mps 674 mmHg 91%
    06:00 -1°C° 0 mm 1 mps 674 mmHg 91%
    07:00 -3°C° 0 mm 2 mps 674 mmHg 90%
    08:00 +1°C° 0 mm 1 mps 674 mmHg 89%
    09:00 +3°C° 0 mm 1 mps 674 mmHg 89%
    10:00 +5°C° 0 mm 1 mps 674 mmHg 88%
    11:00 +6°C° 0 mm 1 mps 674 mmHg 89%
    12:00 +6°C° 0 mm 1 mps 674 mmHg 89%
    13:00 +7°C° 0 mm 1 mps 673 mmHg 90%
    14:00 +7°C° 0 mm 1 mps 673 mmHg 90%
    15:00 +7°C° 0 mm 1 mps 672 mmHg 91%
    16:00 +7°C° 0 mm 1 mps 672 mmHg 91%
    17:00 +6°C° 0.1 mm 1 mps 671 mmHg 92%
    18:00 +3°C° 0.1 mm 2 mps 671 mmHg 92%
    19:00 +2°C° 0.1 mm 2 mps 671 mmHg 92%
    20:00 +2°C° 0.1 mm 2 mps 670 mmHg 91%
    21:00 +1°C° 0.1 mm 3 mps 670 mmHg 90%
    22:00 +1°C° 0.1 mm 3 mps 670 mmHg 89%
    23:00 +1°C° 0.1 mm 3 mps 670 mmHg 89%

    2 March, Monday

    Time Temperature Precipitation Wind Pressure Humidity
    00:00 +1°C° 0.1 mm 2 mps 670 mmHg 90%
    01:00 +1°C° 0.1 mm 2 mps 670 mmHg 91%
    02:00 +1°C° 0.6 mm 2 mps 670 mmHg 93%
    03:00 +1°C° 0.6 mm 2 mps 671 mmHg 94%
    04:00 -1°C° 0.6 mm 2 mps 671 mmHg 96%
    05:00 +1°C° 0.2 mm 1 mps 671 mmHg 96%
    06:00 +1°C° 0.2 mm 1 mps 671 mmHg 96%
    07:00 0°C° 0.2 mm 1 mps 671 mmHg 96%
    08:00 +1°C° 0 mm 1 mps 671 mmHg 91%
    09:00 +2°C° 0 mm 1 mps 671 mmHg 86%
    10:00 +2°C° 0 mm 0 mps 671 mmHg 82%
    11:00 +4°C° 0 mm 1 mps 671 mmHg 81%
    12:00 +5°C° 0 mm 1 mps 671 mmHg 81%
    13:00 +6°C° 0 mm 1 mps 670 mmHg 80%
    14:00 +6°C° 0 mm 1 mps 670 mmHg 81%
    15:00 +6°C° 0 mm 1 mps 670 mmHg 82%
    16:00 +6°C° 0 mm 1 mps 669 mmHg 83%
    17:00 +5°C° 0 mm 1 mps 669 mmHg 84%
    18:00 +2°C° 0 mm 2 mps 670 mmHg 85%
    19:00 +1°C° 0 mm 2 mps 670 mmHg 86%
    20:00 +1°C° 0.1 mm 2 mps 670 mmHg 87%
    21:00 +1°C° 0.1 mm 2 mps 670 mmHg 87%
    22:00 +2°C° 0.1 mm 1 mps 671 mmHg 88%
    23:00 +2°C° 0.1 mm 1 mps 671 mmHg 89%

    3 March, Tuesday

    Time Temperature Precipitation Wind Pressure Humidity
    00:00 +1°C° 0.1 mm 1 mps 671 mmHg 91%
    01:00 0°C° 0.1 mm 0 mps 671 mmHg 93%
    02:00 +1°C° 0.5 mm 1 mps 671 mmHg 94%
    03:00 +1°C° 0.5 mm 1 mps 671 mmHg 95%
    04:00 +1°C° 0.5 mm 1 mps 671 mmHg 97%
    05:00 +1°C° 0.6 mm 1 mps 671 mmHg 96%
    06:00 +1°C° 0.6 mm 1 mps 672 mmHg 96%
    07:00 +1°C° 0.6 mm 1 mps 672 mmHg 96%
    08:00 +1°C° 0.3 mm 2 mps 673 mmHg 94%
    09:00 +2°C° 0.3 mm 2 mps 673 mmHg 92%
    10:00 +3°C° 0.3 mm 2 mps 674 mmHg 90%
    11:00 +3°C° 0.2 mm 2 mps 674 mmHg 88%
    12:00 +3°C° 0.2 mm 2 mps 674 mmHg 86%
    13:00 +3°C° 0.2 mm 2 mps 675 mmHg 83%
    14:00 +3°C° 0.3 mm 2 mps 675 mmHg 85%
    15:00 +3°C° 0.3 mm 2 mps 675 mmHg 86%
    16:00 +2°C° 0.3 mm 2 mps 675 mmHg 87%
    17:00 +1°C° 0.2 mm 2 mps 675 mmHg 90%
    18:00 0°C° 0.2 mm 1 mps 675 mmHg 93%
    19:00 -1°C° 0.2 mm 1 mps 675 mmHg 95%
    20:00 -2°C° 0 mm 1 mps 675 mmHg 95%
    21:00 -3°C° 0 mm 1 mps 676 mmHg 95%
    22:00 -3°C° 0 mm 1 mps 676 mmHg 94%
    23:00 -3°C° 0 mm 1 mps 676 mmHg 93%
    Show more